Station Historical Data
Daily Summary for October 30, 2017 Units:  English    Metric   Both
Next Day »
Daily Weekly Monthly Yearly Custom
  High: Low: Average:
Temperature: 64.8 °F 49.2 °F 58.4 °F
Dew Point: 49.2 °F 37.9 °F 44.1 °F
Humidity: 82% 47% 60%
Wind Speed: 17.0mph 0.0mph 2.9mph
Wind Gust: 21.0mph - -
Wind- - SE
Pressure: 29.83 in 29.75 in -
Precipitation: 0.00 in    
Historical Graphs
 
 
Tabular Data for October 30, 2017
Time Temperature Dew Point Pressure Wind Wind Speed Wind Gust Humidity Rainfall Rate (Hourly) solar Conditions
00:00 62.0 °F 44.7 °F 29.83 in ESE 5.0 mph 8.0 mph 53% 0.00 in 0.00 W/m2
00:05 61.9 °F 44.6 °F 29.83 in East 5.0 mph 9.0 mph 53% 0.00 in 0.00 W/m2
00:10 61.9 °F 45.1 °F 29.83 in East 5.0 mph 7.0 mph 54% 0.00 in 0.00 W/m2
00:15 61.7 °F 44.4 °F 29.82 in Calm   8.0 mph 53% 0.00 in 0.00 W/m2
00:20 61.7 °F 44.9 °F 29.83 in East 6.0 mph 7.0 mph 54% 0.00 in 0.00 W/m2
00:25 61.6 °F 44.3 °F 29.82 in Calm   5.0 mph 53% 0.00 in 0.00 W/m2
00:30 61.5 °F 44.2 °F 29.82 in Calm   7.0 mph 53% 0.00 in 0.00 W/m2
00:35 61.4 °F 44.1 °F 29.82 in East 4.0 mph 7.0 mph 53% 0.00 in 0.00 W/m2
00:40 61.3 °F 44.5 °F 29.82 in East 5.0 mph 8.0 mph 54% 0.00 in 0.00 W/m2
00:45 61.2 °F 44.4 °F 29.82 in Calm   8.0 mph 54% 0.00 in 0.00 W/m2
00:50 61.0 °F 44.2 °F 29.82 in East 7.0 mph 9.0 mph 54% 0.00 in 0.00 W/m2
00:55 60.9 °F 43.7 °F 29.82 in ESE 9.0 mph 12.0 mph 53% 0.00 in 0.00 W/m2
01:00 60.8 °F 43.6 °F 29.81 in East 9.0 mph 12.0 mph 53% 0.00 in 0.00 W/m2
01:05 60.8 °F 44.1 °F 29.82 in East 7.0 mph 11.0 mph 54% 0.00 in 0.00 W/m2
01:10 60.7 °F 43.5 °F 29.82 in East 7.0 mph 8.0 mph 53% 0.00 in 0.00 W/m2
01:15 60.7 °F 43.5 °F 29.82 in East 4.0 mph 9.0 mph 53% 0.00 in 0.00 W/m2
01:18 60.8 °F 43.6 °F 29.81 in Calm   12.0 mph 53% 0.00 in 0.00 W/m2
01:23 60.7 °F 43.5 °F 29.81 in ESE 2.0 mph 13.0 mph 53% 0.00 in 0.00 W/m2
01:28 60.7 °F 43.5 °F 29.81 in East 6.0 mph 9.0 mph 53% 0.00 in 0.00 W/m2
01:33 60.7 °F 43.0 °F 29.81 in East 2.0 mph 14.0 mph 52% 0.00 in 0.00 W/m2
01:38 60.7 °F 43.0 °F 29.80 in ESE 7.0 mph 18.0 mph 52% 0.00 in 0.00 W/m2
01:43 60.7 °F 42.5 °F 29.81 in Calm   15.0 mph 51% 0.00 in 0.00 W/m2
01:48 60.6 °F 42.4 °F 29.81 in Calm   12.0 mph 51% 0.00 in 0.00 W/m2
01:53 60.6 °F 42.4 °F 29.80 in ESE 2.0 mph 12.0 mph 51% 0.00 in 0.00 W/m2
01:58 60.5 °F 42.3 °F 29.80 in East 4.0 mph 12.0 mph 51% 0.00 in 0.00 W/m2
02:03 60.5 °F 42.3 °F 29.80 in East 2.0 mph 12.0 mph 51% 0.00 in 0.00 W/m2
02:08 60.5 °F 41.8 °F 29.80 in East 8.0 mph 15.0 mph 50% 0.00 in 0.00 W/m2
02:13 60.4 °F 41.7 °F 29.80 in East 7.0 mph 13.0 mph 50% 0.00 in 0.00 W/m2
02:18 60.4 °F 41.7 °F 29.80 in ESE 2.0 mph 16.0 mph 50% 0.00 in 0.00 W/m2
02:23 60.4 °F 41.2 °F 29.80 in East 6.0 mph 13.0 mph 49% 0.00 in 0.00 W/m2
02:28 60.4 °F 41.7 °F 29.80 in East 8.0 mph 14.0 mph 50% 0.00 in 0.00 W/m2
02:33 60.3 °F 41.1 °F 29.79 in ESE 13.0 mph 13.0 mph 49% 0.00 in 0.00 W/m2
02:38 60.3 °F 42.1 °F 29.80 in East 7.0 mph 16.0 mph 51% 0.00 in 0.00 W/m2
02:43 60.2 °F 41.5 °F 29.80 in ESE 5.0 mph 13.0 mph 50% 0.00 in 0.00 W/m2
02:48 60.1 °F 40.9 °F 29.80 in Calm   13.0 mph 49% 0.00 in 0.00 W/m2
02:53 60.0 °F 40.8 °F 29.80 in Calm   7.0 mph 49% 0.00 in 0.00 W/m2
02:58 60.0 °F 40.8 °F 29.80 in ESE 8.0 mph 8.0 mph 49% 0.00 in 0.00 W/m2
03:03 60.0 °F 41.3 °F 29.80 in ESE 2.0 mph 7.0 mph 50% 0.00 in 0.00 W/m2
03:08 59.9 °F 40.7 °F 29.79 in ESE 5.0 mph 13.0 mph 49% 0.00 in 0.00 W/m2
03:13 59.8 °F 40.6 °F 29.80 in ESE 8.0 mph 11.0 mph 49% 0.00 in 0.00 W/m2
03:18 59.8 °F 41.1 °F 29.80 in ESE 1.0 mph 7.0 mph 50% 0.00 in 0.00 W/m2
03:23 59.7 °F 40.5 °F 29.79 in Calm   9.0 mph 49% 0.00 in 0.00 W/m2
03:28 59.6 °F 41.0 °F 29.79 in ESE 4.0 mph 8.0 mph 50% 0.00 in 0.00 W/m2
03:34 59.6 °F 41.0 °F 29.79 in Calm   7.0 mph 50% 0.00 in 0.00 W/m2
03:39 59.5 °F 40.9 °F 29.79 in Calm   8.0 mph 50% 0.00 in 0.00 W/m2
03:44 59.5 °F 40.9 °F 29.79 in Calm   9.0 mph 50% 0.00 in 0.00 W/m2
03:49 59.4 °F 40.8 °F 29.79 in Calm   9.0 mph 50% 0.00 in 0.00 W/m2
03:54 59.3 °F 40.7 °F 29.78 in Calm   9.0 mph 50% 0.00 in 0.00 W/m2
03:59 59.3 °F 40.7 °F 29.79 in ESE 2.0 mph 7.0 mph 50% 0.00 in 0.00 W/m2
04:04 59.2 °F 40.6 °F 29.79 in East 4.0 mph 11.0 mph 50% 0.00 in 0.00 W/m2
04:09 59.1 °F 40.5 °F 29.79 in ESE 7.0 mph 11.0 mph 50% 0.00 in 0.00 W/m2
04:14 59.1 °F 41.0 °F 29.79 in Calm   13.0 mph 51% 0.00 in 0.00 W/m2
04:19 59.0 °F 39.9 °F 29.79 in Calm   8.0 mph 49% 0.00 in 0.00 W/m2
04:24 59.0 °F 40.9 °F 29.79 in Calm   6.0 mph 51% 0.00 in 0.00 W/m2
04:29 59.0 °F 39.9 °F 29.79 in Calm   9.0 mph 49% 0.00 in 0.00 W/m2
04:34 58.9 °F 40.3 °F 29.79 in East 11.0 mph 14.0 mph 50% 0.00 in 0.00 W/m2
04:39 58.9 °F 39.8 °F 29.79 in Calm   9.0 mph 49% 0.00 in 0.00 W/m2
04:44 58.9 °F 40.3 °F 29.79 in Calm   12.0 mph 50% 0.00 in 0.00 W/m2
04:49 58.8 °F 39.7 °F 29.79 in East 2.0 mph 9.0 mph 49% 0.00 in 0.00 W/m2
04:54 58.8 °F 39.7 °F 29.79 in ESE 1.0 mph 9.0 mph 49% 0.00 in 0.00 W/m2
05:04 58.7 °F 40.1 °F 29.79 in ESE 4.0 mph 12.0 mph 50% 0.00 in 0.00 W/m2
05:09 58.7 °F 40.1 °F 29.79 in ESE 4.0 mph 9.0 mph 50% 0.00 in 0.00 W/m2
05:14 58.6 °F 39.5 °F 29.79 in ESE 4.0 mph 8.0 mph 49% 0.00 in 0.00 W/m2
05:24 58.6 °F 39.5 °F 29.79 in ESE 6.0 mph 12.0 mph 49% 0.00 in 0.00 W/m2
05:29 58.6 °F 40.0 °F 29.79 in Calm   13.0 mph 50% 0.00 in 0.00 W/m2
05:34 58.6 °F 39.5 °F 29.78 in ESE 1.0 mph 11.0 mph 49% 0.00 in 0.00 W/m2
05:39 58.6 °F 40.0 °F 29.78 in ESE 11.0 mph 12.0 mph 50% 0.00 in 0.00 W/m2
05:44 58.6 °F 39.0 °F 29.78 in ESE 9.0 mph 13.0 mph 48% 0.00 in 0.00 W/m2
05:49 58.5 °F 38.9 °F 29.78 in Calm   15.0 mph 48% 0.00 in 0.00 W/m2
05:54 58.4 °F 38.8 °F 29.78 in SE 4.0 mph 11.0 mph 48% 0.00 in 0.00 W/m2
06:00 58.4 °F 39.3 °F 29.78 in ESE 13.0 mph 14.0 mph 49% 0.00 in 0.00 W/m2
06:05 58.3 °F 39.2 °F 29.78 in ESE 2.0 mph 14.0 mph 49% 0.00 in 0.00 W/m2
06:10 58.2 °F 38.6 °F 29.78 in ESE 1.0 mph 13.0 mph 48% 0.00 in 0.00 W/m2
06:15 58.2 °F 39.2 °F 29.78 in ESE 6.0 mph 16.0 mph 49% 0.00 in 0.00 W/m2
06:20 58.1 °F 38.5 °F 29.78 in SE 1.0 mph 12.0 mph 48% 0.00 in 0.00 W/m2
06:25 58.1 °F 39.1 °F 29.77 in SE 4.0 mph 13.0 mph 49% 0.00 in 0.00 W/m2
06:30 58.0 °F 38.4 °F 29.78 in Calm   18.0 mph 48% 0.00 in 0.00 W/m2
06:35 58.0 °F 37.9 °F 29.77 in ESE 2.0 mph 14.0 mph 47% 0.00 in 0.00 W/m2
06:40 58.0 °F 38.4 °F 29.77 in ESE 6.0 mph 15.0 mph 48% 0.00 in 0.00 W/m2
06:45 58.1 °F 38.5 °F 29.77 in SE 11.0 mph 16.0 mph 48% 0.00 in 0.00 W/m2
06:50 58.1 °F 38.0 °F 29.78 in SE 6.0 mph 9.0 mph 47% 0.00 in 0.00 W/m2
06:55 58.1 °F 38.0 °F 29.78 in Calm   12.0 mph 47% 0.00 in 0.00 W/m2
07:00 58.1 °F 39.1 °F 29.78 in Calm   11.0 mph 49% 0.00 in 0.00 W/m2
07:05 58.1 °F 38.5 °F 29.78 in ESE 5.0 mph 7.0 mph 48% 0.00 in 0.00 W/m2
07:10 58.0 °F 39.0 °F 29.78 in ESE 2.0 mph 10.0 mph 49% 0.00 in 0.00 W/m2
07:15 58.0 °F 38.4 °F 29.77 in SE 2.0 mph 9.0 mph 48% 0.00 in 0.00 W/m2
07:25 57.9 °F 38.3 °F 29.78 in ESE 5.0 mph 14.0 mph 48% 0.00 in 12.00 W/m2
07:30 57.9 °F 38.3 °F 29.77 in SE 9.0 mph 13.0 mph 48% 0.00 in 9.00 W/m2
07:35 58.0 °F 38.4 °F 29.77 in SE 5.0 mph 11.0 mph 48% 0.00 in 5.00 W/m2
07:40 58.1 °F 39.1 °F 29.77 in ESE 1.0 mph 12.0 mph 49% 0.00 in 7.00 W/m2
07:42 58.1 °F 38.5 °F 29.77 in ESE 4.0 mph 6.0 mph 48% 0.00 in 7.00 W/m2
07:47 58.1 °F 39.1 °F 29.78 in Calm   8.0 mph 49% 0.00 in 9.00 W/m2
07:52 58.1 °F 39.1 °F 29.77 in ESE 7.0 mph 9.0 mph 49% 0.00 in 16.00 W/m2
07:57 58.0 °F 39.0 °F 29.77 in ESE 7.0 mph 12.0 mph 49% 0.00 in 25.00 W/m2
08:02 58.0 °F 39.0 °F 29.77 in ESE 11.0 mph 14.0 mph 49% 0.00 in 39.00 W/m2
08:07 57.9 °F 38.9 °F 29.78 in ESE 1.0 mph 8.0 mph 49% 0.00 in 69.00 W/m2
08:12 57.8 °F 38.8 °F 29.78 in ESE 8.0 mph 11.0 mph 49% 0.00 in 53.00 W/m2
08:17 57.9 °F 38.9 °F 29.78 in SE 4.0 mph 5.0 mph 49% 0.00 in 46.00 W/m2
08:22 57.9 °F 39.4 °F 29.78 in Calm   2.0 mph 50% 0.00 in 49.00 W/m2
08:27 57.9 °F 38.9 °F 29.78 in SE 6.0 mph 6.0 mph 49% 0.00 in 49.00 W/m2
08:32 57.9 °F 39.4 °F 29.78 in Calm   8.0 mph 50% 0.00 in 49.00 W/m2
08:37 58.0 °F 39.5 °F 29.78 in Calm   4.0 mph 50% 0.00 in 47.00 W/m2
08:42 58.0 °F 39.0 °F 29.78 in SE 2.0 mph 8.0 mph 49% 0.00 in 53.00 W/m2
08:57 58.0 °F 39.5 °F 29.78 in SE 7.0 mph 8.0 mph 50% 0.00 in 97.00 W/m2
09:02 58.1 °F 39.6 °F 29.78 in SE 7.0 mph 8.0 mph 50% 0.00 in 104.00 W/m2
09:07 58.1 °F 39.6 °F 29.79 in Calm   11.0 mph 50% 0.00 in 109.00 W/m2
09:12 58.1 °F 40.1 °F 29.78 in Calm   9.0 mph 51% 0.00 in 102.00 W/m2
09:17 58.1 °F 40.6 °F 29.78 in SSE 4.0 mph 13.0 mph 52% 0.00 in 121.00 W/m2
09:22 58.1 °F 40.6 °F 29.78 in SE 13.0 mph 15.0 mph 52% 0.00 in 229.00 W/m2
09:27 58.4 °F 41.3 °F 29.78 in SSE 7.0 mph 12.0 mph 53% 0.00 in 443.00 W/m2
09:32 58.7 °F 41.6 °F 29.78 in South 6.0 mph 10.0 mph 53% 0.00 in 476.00 W/m2
09:37 59.1 °F 42.5 °F 29.78 in South 17.0 mph 19.0 mph 54% 0.00 in 392.00 W/m2
09:42 59.6 °F 43.4 °F 29.78 in South 14.0 mph 21.0 mph 55% 0.00 in 520.00 W/m2
09:47 60.0 °F 43.3 °F 29.78 in SSE 13.0 mph 14.0 mph 54% 0.00 in 533.00 W/m2
09:52 60.4 °F 43.2 °F 29.78 in South 8.0 mph 9.0 mph 53% 0.00 in 371.00 W/m2
09:57 60.7 °F 43.5 °F 29.78 in SSE 10.0 mph 11.0 mph 53% 0.00 in 220.00 W/m2
10:02 61.0 °F 43.3 °F 29.79 in South 15.0 mph 17.0 mph 52% 0.00 in 200.00 W/m2
10:07 61.1 °F 43.4 °F 29.79 in South 4.0 mph 15.0 mph 52% 0.00 in 236.00 W/m2
10:13 61.2 °F 43.5 °F 29.78 in South 10.0 mph 15.0 mph 52% 0.00 in 545.00 W/m2
10:18 61.2 °F 43.5 °F 29.79 in South 5.0 mph 14.0 mph 52% 0.00 in 241.00 W/m2
10:23 61.2 °F 43.5 °F 29.79 in Calm   10.0 mph 52% 0.00 in 533.00 W/m2
10:28 61.2 °F 44.0 °F 29.79 in Calm   1.0 mph 53% 0.00 in 155.00 W/m2
10:33 61.3 °F 43.5 °F 29.79 in Calm   4.0 mph 52% 0.00 in 149.00 W/m2
10:38 61.3 °F 44.0 °F 29.80 in SSE 4.0 mph 14.0 mph 53% 0.00 in 160.00 W/m2
10:43 61.3 °F 43.5 °F 29.79 in South 10.0 mph 10.0 mph 52% 0.00 in 160.00 W/m2
10:48 61.3 °F 43.5 °F 29.79 in South 8.0 mph 15.0 mph 52% 0.00 in 155.00 W/m2
10:53 61.2 °F 44.0 °F 29.79 in SSE 6.0 mph 13.0 mph 53% 0.00 in 151.00 W/m2
10:58 61.1 °F 43.9 °F 29.79 in South 5.0 mph 11.0 mph 53% 0.00 in 155.00 W/m2
11:03 61.0 °F 44.2 °F 29.79 in SE 5.0 mph 13.0 mph 54% 0.00 in 179.00 W/m2
11:08 60.9 °F 44.6 °F 29.79 in SSE 4.0 mph 10.0 mph 55% 0.00 in 211.00 W/m2
11:13 60.8 °F 44.5 °F 29.79 in South 10.0 mph 12.0 mph 55% 0.00 in 232.00 W/m2
11:18 60.7 °F 44.9 °F 29.79 in Calm   14.0 mph 56% 0.00 in 237.00 W/m2
11:23 60.6 °F 45.3 °F 29.79 in SSE 6.0 mph 18.0 mph 57% 0.00 in 220.00 W/m2
11:28 60.6 °F 45.8 °F 29.79 in SSE 12.0 mph 14.0 mph 58% 0.00 in 227.00 W/m2
11:33 60.5 °F 45.7 °F 29.79 in South 15.0 mph 15.0 mph 58% 0.00 in 230.00 W/m2
11:38 60.5 °F 45.7 °F 29.79 in SSE 7.0 mph 15.0 mph 58% 0.00 in 246.00 W/m2
11:43 60.5 °F 46.1 °F 29.79 in SSE 9.0 mph 10.0 mph 59% 0.00 in 239.00 W/m2
11:48 60.5 °F 46.1 °F 29.79 in South 4.0 mph 15.0 mph 59% 0.00 in 323.00 W/m2
11:53 60.5 °F 46.6 °F 29.79 in South 10.0 mph 19.0 mph 60% 0.00 in 420.00 W/m2
11:58 60.6 °F 46.7 °F 29.79 in SSE 12.0 mph 15.0 mph 60% 0.00 in 564.00 W/m2
12:08 61.0 °F 47.0 °F 29.80 in South 2.0 mph 9.0 mph 60% 0.00 in 320.00 W/m2
12:13 61.1 °F 47.1 °F 29.79 in SE 6.0 mph 12.0 mph 60% 0.00 in 339.00 W/m2
12:17 61.2 °F 47.2 °F 29.79 in South 8.0 mph 11.0 mph 60% 0.00 in 220.00 W/m2
12:22 61.3 °F 47.3 °F 29.79 in Calm   1.0 mph 60% 0.00 in 703.00 W/m2
12:27 61.4 °F 47.4 °F 29.79 in Calm   13.0 mph 60% 0.00 in 694.00 W/m2
12:32 61.6 °F 48.0 °F 29.79 in Calm     61% 0.00 in 698.00 W/m2
12:37 61.8 °F 47.8 °F 29.79 in South 2.0 mph 2.0 mph 60% 0.00 in 638.00 W/m2
12:42 62.2 °F 48.2 °F 29.78 in South 12.0 mph 12.0 mph 60% 0.00 in 536.00 W/m2
12:47 62.5 °F 48.0 °F 29.78 in SSE 4.0 mph 11.0 mph 59% 0.00 in 515.00 W/m2
12:52 62.7 °F 48.2 °F 29.78 in Calm   1.0 mph 59% 0.00 in 383.00 W/m2
12:57 63.0 °F 48.0 °F 29.78 in SSE 2.0 mph 10.0 mph 58% 0.00 in 364.00 W/m2
13:02 63.1 °F 48.1 °F 29.78 in Calm   2.0 mph 58% 0.00 in 288.00 W/m2
13:07 63.3 °F 48.3 °F 29.77 in Calm     58% 0.00 in 221.00 W/m2
13:12 63.4 °F 47.9 °F 29.77 in South 9.0 mph 12.0 mph 57% 0.00 in 309.00 W/m2
13:17 63.5 °F 48.5 °F 29.77 in Calm   7.0 mph 58% 0.00 in 504.00 W/m2
13:18 63.5 °F 48.5 °F 29.78 in Calm   7.0 mph 58% 0.00 in 471.00 W/m2
13:23 63.6 °F 48.6 °F 29.77 in Calm   2.0 mph 58% 0.00 in 471.00 W/m2
13:33 63.8 °F 48.8 °F 29.77 in South 7.0 mph 15.0 mph 58% 0.00 in 506.00 W/m2
13:38 63.8 °F 48.3 °F 29.77 in SSE 11.0 mph 11.0 mph 57% 0.00 in 448.00 W/m2
13:43 63.9 °F 48.8 °F 29.77 in South 8.0 mph 15.0 mph 58% 0.00 in 341.00 W/m2
13:48 64.0 °F 48.5 °F 29.77 in SSE 8.0 mph 13.0 mph 57% 0.00 in 332.00 W/m2
13:53 64.0 °F 48.5 °F 29.77 in South 5.0 mph 10.0 mph 57% 0.00 in 292.00 W/m2
13:58 64.0 °F 48.9 °F 29.77 in South 12.0 mph 17.0 mph 58% 0.00 in 661.00 W/m2
14:03 64.0 °F 48.5 °F 29.76 in SSW 8.0 mph 12.0 mph 57% 0.00 in 563.00 W/m2
14:08 64.1 °F 49.0 °F 29.76 in South 5.0 mph 11.0 mph 58% 0.00 in 538.00 W/m2
14:13 64.2 °F 48.7 °F 29.76 in Calm   16.0 mph 57% 0.00 in 559.00 W/m2
14:18 64.3 °F 48.8 °F 29.76 in South 8.0 mph 13.0 mph 57% 0.00 in 598.00 W/m2
14:23 64.4 °F 48.8 °F 29.76 in South 11.0 mph 16.0 mph 57% 0.00 in 540.00 W/m2
14:28 64.5 °F 48.5 °F 29.76 in South 12.0 mph 12.0 mph 56% 0.00 in 283.00 W/m2
14:33 64.6 °F 48.6 °F 29.76 in South 9.0 mph 14.0 mph 56% 0.00 in 392.00 W/m2
14:38 64.6 °F 48.6 °F 29.76 in Calm   5.0 mph 56% 0.00 in 543.00 W/m2
14:43 64.7 °F 48.7 °F 29.76 in SSE 1.0 mph 1.0 mph 56% 0.00 in 376.00 W/m2
14:48 64.8 °F 47.8 °F 29.76 in SE 4.0 mph 11.0 mph 54% 0.00 in 439.00 W/m2
14:53 64.8 °F 48.3 °F 29.75 in Calm   12.0 mph 55% 0.00 in 304.00 W/m2
15:03 64.8 °F 48.3 °F 29.75 in Calm   1.0 mph 55% 0.00 in 111.00 W/m2
15:08 64.7 °F 48.2 °F 29.75 in Calm     55% 0.00 in 297.00 W/m2
15:13 64.6 °F 48.6 °F 29.75 in Calm     56% 0.00 in 367.00 W/m2
15:18 64.4 °F 48.4 °F 29.75 in Calm   2.0 mph 56% 0.00 in 438.00 W/m2
15:24 64.3 °F 48.8 °F 29.75 in Calm   1.0 mph 57% 0.00 in 306.00 W/m2
15:29 64.2 °F 48.7 °F 29.75 in Calm     57% 0.00 in 211.00 W/m2
15:34 64.0 °F 48.5 °F 29.75 in Calm   1.0 mph 57% 0.00 in 396.00 W/m2
15:39 63.9 °F 48.8 °F 29.75 in Calm     58% 0.00 in 399.00 W/m2
15:44 63.8 °F 48.8 °F 29.75 in Calm     58% 0.00 in 385.00 W/m2
15:49 63.8 °F 48.8 °F 29.75 in Calm   1.0 mph 58% 0.00 in 309.00 W/m2
15:54 63.7 °F 48.7 °F 29.75 in Calm   2.0 mph 58% 0.00 in 276.00 W/m2
15:59 63.6 °F 49.0 °F 29.75 in Calm   1.0 mph 59% 0.00 in 338.00 W/m2
16:04 63.6 °F 49.0 °F 29.75 in Calm     59% 0.00 in 155.00 W/m2
16:09 63.5 °F 48.9 °F 29.75 in Calm   2.0 mph 59% 0.00 in 281.00 W/m2
16:14 63.4 °F 48.8 °F 29.75 in Calm   2.0 mph 59% 0.00 in 114.00 W/m2
16:19 63.2 °F 49.1 °F 29.75 in Calm   1.0 mph 60% 0.00 in 287.00 W/m2
16:24 63.0 °F 48.9 °F 29.75 in Calm     60% 0.00 in 265.00 W/m2
16:29 62.8 °F 49.2 °F 29.75 in Calm   1.0 mph 61% 0.00 in 250.00 W/m2
16:34 62.6 °F 49.0 °F 29.75 in Calm     61% 0.00 in 232.00 W/m2
16:39 62.4 °F 48.8 °F 29.75 in Calm   1.0 mph 61% 0.00 in 214.00 W/m2
16:44 62.2 °F 48.6 °F 29.75 in Calm   1.0 mph 61% 0.00 in 199.00 W/m2
16:49 62.0 °F 48.8 °F 29.75 in Calm     62% 0.00 in 181.00 W/m2
16:54 61.9 °F 48.8 °F 29.75 in Calm     62% 0.00 in 162.00 W/m2
16:59 61.7 °F 49.0 °F 29.75 in Calm     63% 0.00 in 141.00 W/m2
17:04 61.6 °F 48.9 °F 29.75 in Calm     63% 0.00 in 123.00 W/m2
17:09 61.4 °F 49.1 °F 29.76 in Calm     64% 0.00 in 105.00 W/m2
17:14 61.3 °F 49.0 °F 29.76 in Calm     64% 0.00 in 86.00 W/m2
17:24 60.9 °F 48.7 °F 29.75 in Calm     64% 0.00 in 60.00 W/m2
17:29 60.8 °F 49.0 °F 29.75 in Calm     65% 0.00 in 47.00 W/m2
17:34 60.5 °F 49.1 °F 29.75 in Calm     66% 0.00 in 35.00 W/m2
17:39 60.4 °F 49.0 °F 29.75 in Calm     66% 0.00 in 26.00 W/m2
17:44 60.2 °F 48.8 °F 29.76 in Calm     66% 0.00 in 19.00 W/m2
17:49 59.6 °F 48.6 °F 29.76 in Calm     67% 0.00 in 16.00 W/m2
17:55 59.4 °F 48.8 °F 29.76 in Calm     68% 0.00 in 12.00 W/m2
18:00 59.2 °F 48.7 °F 29.76 in Calm     68% 0.00 in 9.00 W/m2
18:05 59.0 °F 48.9 °F 29.76 in Calm     69% 0.00 in 7.00 W/m2
18:10 58.7 °F 48.6 °F 29.76 in Calm     69% 0.00 in 5.00 W/m2
18:25 57.6 °F 47.9 °F 29.77 in Calm     70% 0.00 in 0.00 W/m2
18:30 57.3 °F 48.0 °F 29.76 in Calm     71% 0.00 in 0.00 W/m2
18:35 57.0 °F 47.7 °F 29.77 in Calm     71% 0.00 in 0.00 W/m2
18:40 56.5 °F 47.6 °F 29.77 in Calm     72% 0.00 in 0.00 W/m2
18:45 56.1 °F 47.6 °F 29.77 in Calm     73% 0.00 in 0.00 W/m2
18:50 55.7 °F 47.2 °F 29.77 in Calm     73% 0.00 in 0.00 W/m2
18:55 55.2 °F 47.1 °F 29.78 in Calm     74% 0.00 in 0.00 W/m2
19:00 54.8 °F 47.0 °F 29.78 in Calm     75% 0.00 in 0.00 W/m2
19:05 54.6 °F 46.8 °F 29.78 in Calm     75% 0.00 in 0.00 W/m2
19:10 54.4 °F 46.3 °F 29.78 in Calm     74% 0.00 in 0.00 W/m2
19:15 54.3 °F 46.6 °F 29.78 in Calm     75% 0.00 in 0.00 W/m2
19:20 54.1 °F 46.4 °F 29.78 in Calm     75% 0.00 in 0.00 W/m2
19:25 53.6 °F 46.2 °F 29.79 in Calm     76% 0.00 in 0.00 W/m2
19:30 53.5 °F 46.1 °F 29.78 in Calm     76% 0.00 in 0.00 W/m2
19:35 53.1 °F 45.8 °F 29.79 in Calm     76% 0.00 in 0.00 W/m2
19:40 52.8 °F 45.5 °F 29.79 in Calm     76% 0.00 in 0.00 W/m2
19:45 52.7 °F 45.7 °F 29.79 in Calm     77% 0.00 in 0.00 W/m2
19:50 52.6 °F 45.6 °F 29.79 in Calm     77% 0.00 in 0.00 W/m2
19:55 52.5 °F 45.5 °F 29.80 in Calm     77% 0.00 in 0.00 W/m2
20:00 52.3 °F 45.3 °F 29.80 in Calm     77% 0.00 in 0.00 W/m2
20:05 52.2 °F 45.2 °F 29.80 in Calm     77% 0.00 in 0.00 W/m2
20:10 52.1 °F 45.1 °F 29.80 in Calm     77% 0.00 in 0.00 W/m2
20:21 51.8 °F 44.8 °F 29.79 in Calm     77% 0.00 in 0.00 W/m2
20:23 51.8 °F 44.5 °F 29.79 in Calm     76% 0.00 in 0.00 W/m2
20:26 51.8 °F 44.5 °F 29.79 in Calm     76% 0.00 in 0.00 W/m2
20:27 51.8 °F 44.5 °F 29.79 in Calm     76% 0.00 in 0.00 W/m2
20:29 51.8 °F 44.5 °F 29.79 in Calm     76% 0.00 in 0.00 W/m2
20:31 51.7 °F 44.4 °F 29.79 in Calm     76% 0.00 in 0.00 W/m2
20:36 51.6 °F 44.6 °F 29.79 in Calm     77% 0.00 in 0.00 W/m2
20:41 51.5 °F 44.5 °F 29.79 in Calm     77% 0.00 in 0.00 W/m2
20:46 51.5 °F 44.5 °F 29.79 in Calm     77% 0.00 in 0.00 W/m2
20:51 51.4 °F 44.4 °F 29.79 in Calm     77% 0.00 in 0.00 W/m2
20:56 51.3 °F 44.3 °F 29.79 in Calm     77% 0.00 in 0.00 W/m2
21:01 51.0 °F 44.0 °F 29.79 in Calm     77% 0.00 in 0.00 W/m2
21:06 50.7 °F 44.1 °F 29.80 in Calm     78% 0.00 in 0.00 W/m2
21:11 50.5 °F 43.9 °F 29.80 in Calm     78% 0.00 in 0.00 W/m2
21:16 50.3 °F 43.7 °F 29.80 in Calm     78% 0.00 in 0.00 W/m2
21:21 50.1 °F 43.8 °F 29.80 in Calm     79% 0.00 in 0.00 W/m2
21:26 50.0 °F 43.8 °F 29.80 in Calm     79% 0.00 in 0.00 W/m2
21:31 49.8 °F 43.6 °F 29.80 in Calm     79% 0.00 in 0.00 W/m2
21:36 49.6 °F 43.7 °F 29.80 in Calm     80% 0.00 in 0.00 W/m2
21:41 49.5 °F 43.6 °F 29.80 in Calm     80% 0.00 in 0.00 W/m2
21:46 49.5 °F 43.6 °F 29.80 in Calm     80% 0.00 in 0.00 W/m2
21:51 49.4 °F 43.5 °F 29.81 in Calm     80% 0.00 in 0.00 W/m2
21:56 49.3 °F 43.4 °F 29.81 in Calm     80% 0.00 in 0.00 W/m2
22:01 49.2 °F 43.3 °F 29.81 in Calm     80% 0.00 in 0.00 W/m2
22:06 49.2 °F 43.6 °F 29.81 in Calm     81% 0.00 in 0.00 W/m2
22:11 49.3 °F 43.7 °F 29.81 in Calm     81% 0.00 in 0.00 W/m2
22:16 49.2 °F 43.6 °F 29.81 in Calm     81% 0.00 in 0.00 W/m2
22:21 49.3 °F 43.7 °F 29.81 in Calm     81% 0.00 in 0.00 W/m2
22:26 49.3 °F 43.7 °F 29.81 in Calm     81% 0.00 in 0.00 W/m2
22:31 49.3 °F 43.7 °F 29.81 in Calm     81% 0.00 in 0.00 W/m2
22:36 49.3 °F 43.7 °F 29.82 in Calm     81% 0.00 in 0.00 W/m2
22:41 49.4 °F 44.1 °F 29.82 in Calm     82% 0.00 in 0.00 W/m2
22:46 49.5 °F 44.2 °F 29.82 in Calm     82% 0.00 in 0.00 W/m2
22:51 49.5 °F 44.2 °F 29.81 in Calm     82% 0.00 in 0.00 W/m2
22:56 49.6 °F 44.3 °F 29.81 in Calm     82% 0.00 in 0.00 W/m2
23:01 49.7 °F 44.4 °F 29.81 in Calm     82% 0.00 in 0.00 W/m2
23:07 49.7 °F 44.4 °F 29.81 in Calm   1.0 mph 82% 0.00 in 0.00 W/m2
23:12 49.9 °F 44.6 °F 29.81 in ESE 2.0 mph 2.0 mph 82% 0.00 in 0.00 W/m2
23:17 49.9 °F 44.6 °F 29.82 in Calm   1.0 mph 82% 0.00 in 0.00 W/m2
23:22 50.0 °F 44.7 °F 29.82 in Calm   2.0 mph 82% 0.00 in 0.00 W/m2
23:27 50.1 °F 44.8 °F 29.82 in Calm   1.0 mph 82% 0.00 in 0.00 W/m2
23:32 50.3 °F 45.0 °F 29.82 in Calm   1.0 mph 82% 0.00 in 0.00 W/m2
23:37 50.4 °F 45.1 °F 29.82 in Calm   1.0 mph 82% 0.00 in 0.00 W/m2
23:42 50.5 °F 45.2 °F 29.83 in Calm   1.0 mph 82% 0.00 in 0.00 W/m2
23:47 50.5 °F 45.2 °F 29.82 in Calm   1.0 mph 82% 0.00 in 0.00 W/m2
23:52 50.6 °F 45.0 °F 29.83 in Calm   1.0 mph 81% 0.00 in 0.00 W/m2
23:57 50.7 °F 45.1 °F 29.83 in East 1.0 mph 1.0 mph 81% 0.00 in 0.00 W/m2
Foresthill Weather
 WU-history PHP script courtesy of   Juneau County Weather.
powered by Cumulus v1.9.3 (1059)
Ambient Weather VWS v14.00
Top Contact Website Map Copyright © 2007 - 2018 Foresthillweather.com Never base important decisions on this or any weather information obtained from the Internet